Allentown, PA

5:24 AM EDT on April 30, 2017 (GMT -0400)
Lehigh Valley International

Weather History for KABE - March, 2013

Change the Weather History Date:

Sunday, March 17, 2013

  Actual Average Record
Temperature  
Mean Temperature 32 °F 39 °F  
Max Temperature 38 °F 50 °F 84 °F (1945)
Min Temperature 25 °F 29 °F 13 °F (1967)
Degree Days  
Heating Degree Days 33 26  
Month to date heating degree days 451 482  
Since 1 July heating degree days 4406 4791  
Cooling Degree Days 0 0  
Month to date cooling degree days 0 0  
Year to date cooling degree days 0 0  
Moisture  
Dew Point 20 °F    
Average Humidity 61    
Maximum Humidity 78    
Minimum Humidity 44    
Precipitation  
Precipitation 0.00 in 0.12 in 1.30 in (1968)
Month to date precipitation 1.40 1.75  
Year to date precipitation 7.46 7.48  
Snow  
Snow 0.00 in 0.10 in 4.20 in (1967)
Month to date snowfall 1.1 3.4  
Since 1 July snowfall 18.0 30.4  
Snow Depth 0.00 in    
Sea Level Pressure  
Sea Level Pressure 30.12 in    
Wind  
Wind Speed 7 mph (NNW)    
Max Wind Speed 15 mph    
Max Gust Speed 18 mph    
Visibility 10 miles    
Events      
T = Trace of Precipitation, MM = Missing Value Source: NWS Daily Summary

Daily Weather History Graph

Daily Weather History Graph

Search for Another Location

Airport or City:

Trip Planner

Search our weather history database for the weather conditions in past years. The results will help you decide how hot, cold, wet, or windy it might be!

Date:

Astronomy

Mar. 17, 2013 Rise Set
Actual Time 7:09 AM EDT 7:10 PM EDT
Civil Twilight 6:42 AM EDT 7:38 PM EDT
Nautical Twilight 6:10 AM EDT 8:10 PM EDT
Astronomical Twilight 5:38 AM EDT 8:42 PM EDT
Moon 10:19 AM EDT (3/17) 12:18 AM EDT (3/17)
Length of Visible Light 12h 55m
Length of Day
12h 01m
Waxing Crescent, 31% of the Moon is Illuminated
Mar 17
Waxing Crescent
Mar 19
First Quarter
Mar 27
Full
Apr 3
Last Quarter
Apr 10
New

Hourly Weather History & Observations

Time (EDT) Temp. Windchill Dew Point Humidity Pressure Visibility Wind Dir Wind Speed Gust Speed Precip Events Conditions
12:51 AM 32.0 °F 27.5 °F 27.0 °F 82% 29.94 in 10.0 mi West 4.6 mph - N/A   Scattered Clouds
1:51 AM 30.9 °F 26.2 °F 25.0 °F 79% 29.94 in 10.0 mi WNW 4.6 mph - N/A   Clear
2:51 AM 30.0 °F - 23.0 °F 75% 29.96 in 10.0 mi Calm Calm - N/A   Partly Cloudy
3:06 AM 30.2 °F 24.3 °F 23.0 °F 75% 29.96 in 10.0 mi NNW 5.8 mph - N/A   Mostly Cloudy
3:21 AM 28.4 °F 21.2 °F 23.0 °F 80% 29.96 in 10.0 mi North 6.9 mph - N/A   Scattered Clouds
3:33 AM 30.2 °F 25.4 °F 23.0 °F 75% 29.97 in 10.0 mi North 4.6 mph - N/A   Mostly Cloudy
3:51 AM 30.9 °F 27.5 °F 24.1 °F 76% 29.99 in 10.0 mi NNW 3.5 mph - N/A   Overcast
4:51 AM 30.9 °F 21.7 °F 23.0 °F 72% 30.00 in 10.0 mi North 11.5 mph - N/A   Overcast
5:51 AM 30.0 °F 22.4 °F 21.0 °F 69% 30.03 in 10.0 mi North 8.1 mph - N/A   Overcast
6:48 AM 30.2 °F 22.6 °F 21.2 °F 69% 30.06 in 10.0 mi North 8.1 mph - N/A   Overcast
6:51 AM 30.0 °F 23.2 °F 21.0 °F 69% 30.07 in 10.0 mi North 6.9 mph - N/A   Overcast
7:51 AM 28.9 °F 21.1 °F 19.9 °F 69% 30.10 in 10.0 mi North 8.1 mph - N/A   Overcast
8:51 AM 30.0 °F 24.1 °F 19.0 °F 64% 30.15 in 10.0 mi NNW 5.8 mph - N/A   Clear
9:51 AM 32.0 °F 25.6 °F 18.0 °F 56% 30.16 in 10.0 mi NW 6.9 mph - N/A   Clear
10:51 AM 32.0 °F 24.2 °F 19.0 °F 59% 30.15 in 10.0 mi North 9.2 mph - N/A   Mostly Cloudy
11:51 AM 34.0 °F 24.6 °F 19.0 °F 54% 30.17 in 10.0 mi North 13.8 mph - N/A   Partly Cloudy
12:51 PM 35.1 °F 27.4 °F 19.0 °F 52% 30.17 in 10.0 mi NNW 10.4 mph - N/A   Overcast
1:51 PM 37.0 °F 30.4 °F 19.0 °F 48% 30.17 in 10.0 mi NW 9.2 mph - N/A   Mostly Cloudy
2:51 PM 37.0 °F 31.0 °F 18.0 °F 46% 30.16 in 10.0 mi NNW 8.1 mph - N/A   Overcast
3:51 PM 37.0 °F 28.9 °F 17.1 °F 44% 30.17 in 10.0 mi North 12.7 mph - N/A   Mostly Cloudy
4:51 PM 37.0 °F 31.0 °F 18.0 °F 46% 30.18 in 10.0 mi North 8.1 mph - N/A   Partly Cloudy
5:51 PM 37.0 °F 31.0 °F 17.1 °F 44% 30.20 in 10.0 mi NNW 8.1 mph - N/A   Clear
6:51 PM 35.1 °F 29.3 °F 17.1 °F 48% 30.22 in 10.0 mi North 6.9 mph - N/A   Clear
7:51 PM 33.1 °F 27.7 °F 18.0 °F 54% 30.25 in 10.0 mi North 5.8 mph - N/A   Clear
8:51 PM 32.0 °F 27.5 °F 18.0 °F 56% 30.27 in 10.0 mi North 4.6 mph - N/A   Clear
9:51 PM 30.0 °F 26.5 °F 19.0 °F 64% 30.30 in 10.0 mi North 3.5 mph - N/A   Clear
10:51 PM 30.9 °F 27.5 °F 17.1 °F 57% 30.30 in 10.0 mi NNE 3.5 mph - N/A   Clear
11:51 PM 28.9 °F 25.2 °F 16.0 °F 58% 30.31 in 10.0 mi NNE 3.5 mph - N/A   Clear